RH
4 4 4 4 3 3 3 3 3 2 2 3 3 3 3 3 3 3 3 4 5 5 6 6 6 6 6 7 11 25 49 70 79 79 72 64 58 53 57 58 48 39 42 44 44 44 43 43 40 37 37 34 31 29 28 26 26 27 29 31 35 41 45 47 47 47 49 52 55 56 55 53 52 52 52 49 47 44 41 39 36 34 38 43 47
4 4 3 3 3 3 3 3 3 3 3 2 3 3 3 3 3 3 3 3 3 4 4 5 6 5 7 8 10 16 28 50 71 79 76 70 65 57 56 60 54 42 38 41 44 43 41 42 42 39 37 35 32 30 28 26 25 26 27 28 30 35 40 43 44 45 46 48 52 55 55 53 52 52 53 52 50 47 44 40 37 35 35 36 38
4 4 4 3 3 3 3 3 4 3 4 3 3 3 3 3 3 3 3 3 3 3 3 3 4 5 6 6 10 16 19 30 52 70 76 73 70 65 60 61 59 47 36 36 41 42 40 40 42 41 37 35 33 31 28 26 25 25 26 26 27 30 35 39 41 43 44 45 47 49 50 51 52 52 53 54 53 50 45 42 39 37 35 33 33
4 3 3 3 3 4 3 4 5 5 5 4 4 4 4 4 4 3 3 3 3 3 3 3 3 3 5 5 7 14 19 22 32 52 71 75 72 71 66 62 59 47 36 34 36 38 40 41 44 43 39 37 35 32 29 25 24 25 25 25 26 28 30 35 38 39 41 43 43 44 45 47 49 51 53 54 54 53 51 49 47 43 39 36 34
4 3 4 3 3 4 3 4 5 6 7 6 6 6 6 6 6 5 4 3 3 3 3 4 4 2 4 6 6 11 18 21 20 34 62 74 72 73 69 64 60 48 37 34 33 34 38 43 45 44 41 39 38 36 33 28 25 25 26 25 25 26 28 31 35 37 38 39 39 41 42 42 44 46 49 52 53 54 54 55 53 49 44 41 40
4 4 4 4 4 4 3 4 6 7 8 7 7 7 7 8 8 7 6 5 4 4 3 4 4 4 3 3 7 12 18 22 18 23 51 71 71 71 68 63 63 56 42 34 33 34 37 41 41 40 42 42 39 39 39 36 32 28 27 27 26 26 27 28 31 34 37 37 36 37 38 39 41 42 45 48 49 50 51 52 52 51 48 46 46
4 4 4 4 4 4 4 5 6 8 9 9 9 9 9 9 9 9 8 7 5 4 4 4 3 5 4 2 10 15 15 20 19 20 44 69 72 70 68 63 64 62 49 36 34 34 39 42 38 37 41 40 39 41 41 41 39 34 31 30 28 27 28 29 30 32 35 35 34 34 36 36 38 40 42 45 46 46 46 46 49 49 48 48 49
4 4 4 4 4 4 4 5 7 8 9 10 10 10 11 11 11 11 10 8 7 5 4 4 4 5 6 3 8 10 9 22 32 28 40 66 78 76 72 68 67 64 55 45 37 35 43 49 40 34 38 39 42 46 41 38 38 35 32 33 31 30 29 30 30 30 31 33 33 33 34 33 35 38 40 42 43 42 42 43 45 47 47 48 50
4 5 4 5 5 4 4 5 6 8 9 9 10 10 11 12 12 13 12 11 9 7 5 5 4 5 6 4 5 4 6 22 39 39 42 63 83 87 80 75 74 69 62 54 44 38 42 44 34 29 36 38 41 43 39 35 36 34 32 33 33 33 32 31 31 29 30 31 31 32 32 32 33 35 37 40 41 40 40 41 42 43 45 46 47
5 5 5 5 5 4 4 4 5 7 7 9 10 9 10 11 12 13 14 13 12 9 7 6 4 4 5 5 5 4 5 10 22 38 49 60 78 90 87 81 79 75 68 61 55 46 39 33 28 28 33 36 37 37 36 36 36 34 32 33 34 35 35 33 32 31 30 30 31 31 31 31 32 33 36 38 39 40 40 39 40 39 39 40 42
5 5 5 5 5 5 4 4 5 6 7 7 9 10 10 11 12 13 14 14 14 12 9 7 6 5 4 5 4 5 8 8 12 32 53 59 69 86 93 89 85 81 74 69 72 69 48 30 25 26 30 34 35 35 35 35 35 35 34 34 34 35 37 36 35 33 32 33 35 35 32 32 31 32 37 38 39 41 41 39 39 36 35 36 37
6 6 6 6 6 5 4 4 5 5 7 8 9 9 10 12 16 19 18 17 15 14 12 9 8 7 4 5 5 4 6 8 10 29 56 63 62 76 92 94 89 87 80 75 81 82 60 36 26 25 28 33 34 34 34 33 34 37 38 36 34 34 36 36 36 36 33 33 35 35 38 41 37 32 33 38 40 40 40 39 37 36 40 40 37
6 6 6 7 6 5 5 5 6 6 7 8 8 9 13 18 24 27 26 23 20 16 14 11 10 9 6 4 5 4 5 6 8 31 69 82 70 71 88 93 90 89 86 80 81 79 63 45 35 28 27 31 34 34 34 34 34 38 41 39 34 33 34 35 36 35 33 33 33 34 41 50 52 45 36 35 38 39 40 43 41 44 56 55 46
6 6 7 7 7 6 6 6 7 8 8 8 10 13 20 25 28 29 29 29 27 21 17 14 11 10 8 6 5 4 5 6 4 21 61 84 77 72 85 94 94 94 94 87 82 77 63 47 41 38 31 29 32 34 34 36 38 40 43 43 38 35 34 34 35 34 33 33 33 34 38 43 56 65 52 36 36 39 42 48 49 49 60 63 57
7 7 7 8 8 6 6 7 8 9 8 9 13 19 25 27 27 28 28 30 31 28 22 16 13 12 10 8 7 5 5 7 5 11 38 70 80 75 81 94 97 97 99 91 81 76 62 40 39 48 41 29 29 33 35 37 39 41 45 46 44 42 38 37 37 35 35 34 32 36 38 37 53 76 66 40 36 41 44 51 54 52 56 61 63
8 8 7 8 9 7 7 7 8 9 9 10 14 22 27 27 26 27 29 29 31 32 29 21 15 13 11 9 8 7 5 5 6 6 20 53 78 78 78 90 97 98 100 95 87 81 61 37 41 56 49 32 29 31 33 35 38 41 47 50 49 47 45 45 44 40 38 37 36 39 42 41 52 69 61 40 38 46 50 55 57 57 59 63 65
9 9 8 9 9 9 8 7 8 9 9 9 13 21 26 27 26 27 30 31 31 32 33 28 20 15 13 11 9 8 7 5 6 7 9 33 68 81 79 87 98 99 96 94 90 80 59 50 62 67 51 34 30 31 31 33 37 43 49 51 51 49 50 51 52 49 44 40 39 41 45 46 50 56 51 41 44 53 59 63 62 61 64 67 68
10 10 9 9 10 10 9 8 8 8 8 8 11 19 25 27 26 27 30 33 32 32 33 32 26 19 15 13 10 8 8 6 6 7 6 16 49 78 83 84 94 101 97 91 84 73 64 68 76 70 55 42 33 32 33 34 38 46 51 51 49 48 51 56 59 56 49 40 37 39 45 49 52 55 55 52 54 60 66 67 66 66 70 71 69
10 10 11 10 10 11 11 10 9 8 8 8 10 17 24 27 26 27 30 33 33 32 33 33 31 24 17 14 12 9 9 8 6 7 7 8 27 58 76 79 83 94 101 96 85 79 80 80 74 66 65 59 44 36 38 38 41 47 50 52 52 50 54 60 61 58 50 44 40 38 41 47 51 56 60 59 60 65 69 68 66 66 67 65 63
9 11 13 13 12 12 12 12 10 9 8 8 10 16 23 26 26 26 29 33 34 32 32 33 33 29 21 16 14 10 9 9 7 7 8 6 9 28 54 70 73 81 96 100 92 85 85 82 74 70 73 72 61 48 42 40 44 47 48 52 56 58 58 58 58 56 50 46 47 44 40 44 51 55 60 62 64 67 69 67 65 63 61 59 57
8 11 14 14 13 13 12 12 11 9 8 8 10 16 22 26 27 26 27 32 34 33 32 33 33 31 25 19 16 13 10 9 9 8 8 7 5 9 29 52 62 68 84 97 96 88 85 84 82 80 79 79 75 62 47 41 46 48 47 50 57 61 59 57 60 61 55 52 57 53 43 45 53 59 62 64 67 70 68 65 63 59 57 57 55
7 10 12 13 12 11 12 12 11 10 8 9 13 19 24 27 28 28 29 32 34 34 33 33 34 33 29 22 17 15 11 8 9 9 8 7 7 5 13 33 50 58 71 89 97 94 89 88 88 88 86 84 81 72 56 44 43 46 46 49 56 58 57 57 61 64 63 65 69 61 48 47 54 62 68 70 70 70 68 64 61 57 56 61 64
6 8 10 10 10 10 11 12 12 11 9 11 16 22 27 29 30 31 33 35 37 36 33 34 36 35 31 26 20 17 14 10 9 10 9 8 8 6 6 18 38 51 60 75 91 95 91 89 91 93 94 91 87 80 64 47 41 44 46 49 54 56 55 55 57 59 63 68 69 63 56 53 54 60 68 72 70 69 66 62 60 59 59 64 69
6 6 8 9 8 9 10 11 12 11 9 11 18 25 30 32 31 32 36 39 40 37 33 34 37 36 34 30 24 19 16 13 10 10 10 9 8 8 5 9 26 44 51 59 76 89 93 92 92 94 95 95 92 85 73 58 49 48 49 50 53 55 55 56 56 56 59 63 64 64 66 65 61 59 62 66 66 65 63 61 62 64 65 66 69
6 6 7 8 8 8 9 10 11 11 10 11 18 26 32 33 32 33 38 41 41 37 33 33 37 37 35 32 29 23 18 16 14 12 11 10 9 8 6 6 18 37 48 51 60 77 91 97 97 96 94 92 91 88 84 76 67 61 59 57 55 54 55 57 58 57 57 58 61 64 68 71 69 66 63 63 63 61 59 60 63 65 69 74 79
6 6 6 7 7 7 8 9 10 11 11 11 17 27 33 34 33 35 39 43 41 36 31 31 33 38 38 35 32 28 21 18 18 17 13 11 10 9 7 7 15 30 45 50 53 67 87 97 98 98 96 91 89 86 83 80 76 71 68 65 62 60 57 57 58 59 58 56 57 61 66 69 72 70 65 61 61 59 59 63 64 64 69 78 85
6 6 6 7 7 7 7 8 8 10 11 12 17 27 34 35 34 36 42 45 41 34 31 29 32 39 44 40 34 31 27 22 20 20 18 14 12 11 8 8 16 30 42 49 50 62 84 96 94 94 96 95 93 90 85 81 78 74 71 70 69 67 65 61 59 58 58 56 54 57 61 64 67 69 67 64 65 65 67 71 74 74 75 76 78
5 6 6 6 7 7 7 7 8 9 11 12 17 26 34 36 35 36 42 46 42 34 31 32 34 38 40 37 33 31 30 26 21 23 26 23 17 14 10 10 20 32 42 48 48 57 80 96 95 91 91 91 93 94 92 88 83 78 74 72 70 70 70 67 62 59 56 55 54 56 60 63 66 69 69 68 69 72 73 74 79 84 83 79 76
6 6 6 6 7 8 8 8 8 9 10 12 18 27 35 38 36 36 40 44 43 36 33 33 35 36 36 35 33 31 30 28 25 24 27 25 20 16 12 11 19 32 45 53 53 54 71 90 97 94 89 85 85 87 88 88 87 81 76 73 72 72 72 70 67 62 57 54 55 56 59 63 65 68 71 71 72 76 79 79 82 87 87 85 84
6 6 6 7 9 9 9 9 9 9 10 11 19 31 40 40 37 36 38 42 42 38 34 34 35 36 36 35 33 32 31 30 27 25 23 21 18 17 15 11 14 31 53 65 61 55 60 74 87 92 89 83 80 78 79 81 83 82 79 76 74 74 74 72 69 65 60 59 62 63 62 62 63 67 74 78 76 77 82 83 85 88 90 91 94
6 7 8 10 11 11 10 10 10 11 11 12 19 34 44 43 39 36 37 40 42 38 35 36 36 36 37 37 35 34 34 32 29 26 23 21 19 17 15 11 10 25 52 69 67 59 54 59 72 84 87 83 78 74 71 72 75 76 76 75 73 72 72 71 69 66 63 64 66 66 65 66 68 70 74 78 79 81 85 87 89 93 96 98 99
8 9 10 11 11 11 10 10 11 12 13 15 24 38 46 46 41 38 37 39 42 40 37 38 39 38 38 38 37 36 36 35 33 28 24 22 19 15 14 12 9 18 43 66 72 65 57 54 62 74 83 83 79 72 68 67 69 70 69 68 67 67 67 67 69 67 63 62 64 65 67 72 77 77 78 83 87 89 91 93 97 99 100 100 99
10 10 11 11 11 10 10 10 12 14 16 21 32 45 51 47 43 45 44 40 40 41 38 37 40 41 39 39 39 38 39 38 35 30 27 23 19 15 13 12 7 11 33 61 76 72 63 58 61 70 81 84 78 70 66 65 66 67 66 65 62 61 61 65 70 70 65 62 63 66 70 74 77 79 81 86 92 95 96 99 100 99 99 99 100
11 11 11 11 11 11 12 12 14 16 20 28 41 52 54 47 44 51 54 46 40 42 42 40 41 42 40 39 39 38 38 37 33 30 26 22 19 14 11 11 10 7 19 46 69 76 72 67 66 73 81 83 77 68 64 65 66 68 69 67 62 58 58 64 70 72 69 66 66 67 69 72 77 82 85 89 94 98 100 100 99 99 100 101 100
12 12 12 12 13 15 16 17 17 18 24 35 48 55 55 49 46 52 58 54 46 46 50 50 49 47 44 41 39 38 37 34 30 29 25 21 18 14 10 14 15 9 15 40 64 77 79 74 72 78 83 80 75 68 65 67 71 75 76 75 69 63 61 65 74 80 78 76 79 84 84 80 78 82 90 96 99 100 100 100 100 101 100 100 100
14 13 13 16 19 21 21 19 18 20 28 41 52 54 53 53 53 55 60 60 53 48 50 54 55 55 52 47 42 39 37 33 30 29 24 20 18 15 14 18 18 18 36 63 74 78 83 81 76 79 83 78 73 71 71 75 80 82 82 80 77 72 67 69 81 93 93 91 94 97 96 92 86 84 91 98 100 100 99 100 101 100 99 100 100
14 13 15 20 24 25 23 19 18 24 33 43 52 53 51 53 57 57 57 56 52 48 49 55 58 60 58 52 45 41 39 35 33 30 24 21 20 16 17 24 25 29 57 85 85 76 81 84 79 78 80 78 79 82 85 89 93 91 89 88 86 84 79 76 81 89 91 93 98 99 98 99 97 94 95 99 100 100 100 100 100 100 100 100 100
15 14 17 23 26 25 21 18 19 27 35 42 49 52 49 52 57 57 52 48 47 47 50 55 59 59 56 49 41 38 37 35 32 29 24 21 20 16 21 36 42 39 56 84 92 85 82 83 80 78 79 83 90 95 96 99 100 97 94 93 92 92 90 87 86 87 86 90 97 98 95 95 94 90 91 94 95 97 99 100 99 99 98 97 96
16 16 20 26 27 22 19 18 20 27 34 40 46 50 50 54 62 63 56 49 47 48 50 53 56 57 56 51 45 43 41 36 30 28 25 21 19 16 22 44 65 68 70 86 99 95 85 80 79 80 83 88 95 97 97 97 98 94 92 92 92 93 94 93 92 91 90 90 92 93 93 94 93 90 89 90 91 94 96 96 95 93 91 89 87
16 18 24 28 25 20 18 18 22 27 33 39 46 51 51 53 60 65 61 52 47 47 49 50 51 53 55 55 53 51 48 39 30 25 22 19 19 18 18 36 68 87 90 95 100 95 86 84 85 86 87 92 96 98 97 96 96 95 93 92 92 93 94 93 92 91 89 88 88 87 87 89 89 88 87 87 88 88 88 86 84 82 80 78 77
17 21 27 26 21 18 17 18 23 30 37 44 50 51 48 48 51 56 56 51 46 45 45 43 42 42 44 48 51 51 47 38 29 25 22 18 20 23 24 36 64 86 93 96 97 91 88 92 94 92 92 95 98 100 99 96 96 95 93 91 90 89 89 90 89 88 88 87 85 83 82 81 80 79 78 78 78 77 75 74 73 72 73 74 76
21 26 27 23 19 17 16 18 28 39 47 54 55 50 48 51 55 57 59 58 54 54 51 43 38 41 44 45 46 45 40 30 23 25 28 27 29 37 44 51 67 84 93 97 96 93 93 98 98 94 95 98 100 100 98 96 95 93 90 87 85 83 82 82 82 81 82 81 79 78 77 74 73 73 71 70 70 69 69 71 72 72 74 77 77
26 26 23 19 17 15 18 28 45 57 63 66 60 50 49 57 60 61 64 65 61 60 58 48 44 54 63 59 47 40 38 34 32 35 37 35 42 63 76 74 75 87 97 100 99 97 97 97 95 92 93 97 98 98 98 96 93 90 87 83 80 78 76 76 75 74 74 73 73 74 73 71 71 70 69 68 69 70 71 72 73 74 75 76 77
26 22 20 18 16 18 29 47 63 71 73 69 57 48 50 57 57 54 55 56 53 54 54 48 47 60 76 74 59 49 51 52 48 45 42 39 48 74 92 88 82 89 98 100 100 99 95 91 90 90 91 92 93 95 96 93 89 86 83 80 77 76 75 74 73 72 72 72 72 72 71 71 71 69 69 70 70 71 72 73 73 74 75 76 76
21 18 18 16 14 23 44 61 70 72 70 62 52 47 50 53 51 47 46 45 44 46 48 46 48 58 69 70 66 68 74 69 53 43 47 51 56 72 87 89 87 93 98 100 100 97 90 85 86 87 88 88 89 89 89 86 82 81 79 77 75 74 72 71 71 70 70 71 71 70 69 69 69 68 67 67 66 66 69 70 67 68 72 74 75
18 19 24 27 31 42 57 65 66 64 58 51 46 46 47 47 47 44 42 42 45 46 44 44 50 58 64 67 72 82 91 81 56 46 61 75 76 76 84 92 95 98 100 98 96 92 86 82 80 80 81 84 85 84 81 79 78 79 77 74 70 67 65 64 63 63 63 64 64 64 64 63 64 64 62 59 59 64 71 74 73 74 78 80 80
20 24 36 54 68 70 65 58 56 54 49 44 43 45 48 51 52 48 43 44 48 49 44 43 51 61 68 76 84 92 96 89 73 67 80 95 95 90 91 96 99 100 100 97 92 88 83 78 73 72 74 77 79 79 78 77 76 76 73 69 66 62 60 58 56 55 55 57 59 62 64 64 64 64 60 57 61 69 76 83 87 89 90 90 86
20 21 39 70 85 76 59 51 50 50 47 45 45 47 51 54 54 52 49 49 51 49 43 43 52 63 71 79 91 97 98 97 94 90 90 95 98 98 98 99 100 100 101 98 94 88 81 74 70 69 69 69 70 71 71 71 71 72 70 69 68 65 61 56 52 49 50 54 58 62 66 67 67 66 63 65 72 77 79 81 85 86 86 87 85
18 23 51 82 84 64 50 49 48 46 47 50 51 53 56 57 55 53 54 55 54 50 44 46 59 71 76 82 92 99 99 99 100 99 96 95 97 99 100 100 100 100 101 100 97 90 81 72 68 67 65 64 66 69 69 66 67 69 69 68 66 64 59 54 51 50 52 56 59 63 68 73 75 72 68 70 75 78 77 78 81 84 86 89 90
17 29 64 88 79 57 51 56 54 51 51 51 47 47 54 58 55 51 54 58 56 49 48 58 71 78 81 86 93 97 98 99 100 100 99 98 98 97 96 96 98 99 101 100 98 91 83 74 69 67 64 63 70 80 81 72 65 66 67 65 62 59 55 52 51 52 56 63 69 71 70 70 70 68 65 67 72 77 81 86 90 92 92 91 91
19 40 76 93 77 58 55 62 63 57 49 43 46 56 67 68 59 52 56 64 61 54 59 78 90 88 86 91 96 97 98 99 100 100 99 100 100 99 97 94 94 97 100 101 99 94 86 78 72 70 67 66 71 83 90 84 74 72 73 72 69 68 67 67 67 68 70 75 79 78 72 69 70 73 76 80 84 88 91 93 93 91 90 91 92
Wind_Speed
31 31 32 32 32 32 32 33 33 33 33 34 34 35 36 37 38 38 38 38 37 36 35 34 33 33 32 33 33 32 33 34 35 39 41 41 40 38 38 38 35 35 35 34 33 32 30 28 27 27 27 27 26 25 24 24 24 25 25 25 25 25 24 23 23 23 22 21 21 21 20 19 19 18 17 17 17 18 18 18 18 18 17 17 17
31 32 33 34 34 34 33 33 33 33 34 34 35 36 37 38 39 40 40 41 40 39 38 37 36 35 34 34 34 34 34 34 36 37 39 42 43 40 39 39 37 37 36 35 34 34 32 30 29 29 29 28 27 26 25 25 25 25 26 26 26 26 25 24 24 25 24 22 22 22 22 21 20 19 19 19 19 19 19 19 19 19 19 18 18
31 32 33 34 34 34 34 33 32 32 32 33 34 35 36 38 39 40 42 43 42 42 41 39 38 37 36 35 35 35 35 36 36 35 36 42 45 42 41 41 40 39 38 37 36 35 33 31 30 30 29 29 28 27 26 26 25 25 26 27 27 26 26 25 25 26 25 24 23 23 23 22 22 21 20 20 20 20 20 20 20 20 20 19 19
32 33 33 34 34 33 33 32 31 30 30 31 32 33 34 36 38 39 41 43 44 44 43 42 40 39 39 37 36 36 36 37 37 35 35 40 45 44 43 43 42 41 39 38 38 37 35 33 32 31 29 28 28 28 27 26 25 25 26 27 27 27 26 26 26 27 27 26 25 24 23 23 23 23 22 21 21 21 21 21 21 21 20 20 20
33 34 34 34 34 33 32 30 29 28 28 28 29 30 31 33 35 36 38 41 44 45 45 44 42 40 40 39 37 37 37 37 38 36 36 39 44 46 45 44 43 42 41 40 39 38 36 34 32 31 29 28 27 28 27 27 26 25 26 27 27 27 27 26 26 27 27 27 26 25 24 24 24 24 23 22 22 21 22 22 22 21 21 21 21
33 34 35 35 34 33 32 30 28 26 26 26 27 27 28 29 31 32 34 37 41 44 44 45 44 42 41 40 38 37 37 37 38 37 36 38 42 45 46 46 44 43 42 41 41 40 37 35 34 32 30 29 28 28 27 27 27 26 26 26 27 27 27 27 27 27 27 28 28 27 25 24 23 24 24 23 22 22 22 22 21 21 21 21 21
34 34 34 34 34 34 32 30 28 26 24 24 24 25 26 27 28 29 30 32 35 40 43 44 44 43 42 41 39 37 37 37 37 38 37 37 40 44 46 46 45 44 43 42 42 41 38 36 35 33 31 30 30 30 28 27 27 27 26 27 27 27 27 27 27 27 27 27 28 28 26 24 24 24 24 23 23 23 23 22 21 21 22 22 22
35 35 35 34 34 33 32 30 28 26 25 24 24 25 25 26 26 27 27 28 30 34 39 42 43 43 42 41 40 38 38 38 38 38 38 36 37 41 45 47 46 45 44 43 42 40 39 38 36 34 32 31 31 30 29 28 28 28 28 27 28 28 27 28 28 27 27 28 28 28 28 26 25 24 24 24 24 24 23 23 22 22 22 23 23
36 36 35 35 34 34 32 30 29 27 26 26 26 27 27 27 28 27 27 27 27 29 33 37 40 42 42 42 41 40 39 38 38 38 38 36 36 39 44 47 47 47 46 45 43 41 40 39 37 35 34 33 32 31 31 30 29 29 29 28 28 29 29 28 28 28 27 28 28 28 27 27 26 25 24 24 24 23 23 23 23 23 23 24 24
36 35 35 35 35 34 32 30 29 28 28 28 28 28 29 30 30 30 29 27 26 27 30 33 35 38 41 41 41 40 39 38 39 39 39 38 36 38 44 47 47 48 48 46 43 42 41 40 38 37 36 34 33 32 31 31 30 29 29 29 29 29 29 29 29 28 28 28 28 28 27 27 27 26 25 24 23 23 23 23 23 24 24 25 25
35 35 35 36 35 34 32 30 30 29 29 29 29 30 31 32 33 33 32 30 28 26 27 30 31 34 38 40 41 40 39 38 40 40 39 40 38 37 41 46 48 48 49 48 44 42 43 42 40 39 38 35 34 33 34 33 32 30 30 30 30 29 29 30 29 29 28 28 28 28 28 27 27 26 25 25 23 23 23 23 24 24 25 25 25
35 35 35 36 35 34 31 29 29 29 29 30 30 31 33 34 33 33 33 32 30 27 27 28 29 31 34 38 40 40 39 39 39 38 39 41 41 37 37 43 48 49 50 49 46 44 44 43 41 40 39 37 36 35 35 35 33 32 32 31 30 30 30 30 30 30 29 28 28 28 28 28 28 27 26 25 24 23 23 23 24 24 25 25 25
35 35 35 35 35 33 31 29 29 30 30 31 33 34 34 33 32 31 30 31 31 29 27 27 28 29 31 35 38 40 39 39 39 40 39 39 40 38 36 39 45 49 50 51 49 47 45 43 42 41 40 38 38 37 36 35 34 33 33 32 31 31 30 30 31 30 29 28 28 28 28 28 28 28 27 26 25 24 23 23 24 24 24 25 25
35 35 35 35 34 32 31 30 30 31 32 34 35 35 33 31 30 29 28 28 30 30 29 27 28 29 29 32 35 38 39 39 40 42 41 38 38 37 35 36 41 47 50 52 51 49 47 45 43 41 41 40 39 38 37 36 35 35 33 33 31 31 31 31 30 30 30 29 28 28 29 30 29 28 28 27 26 25 24 24 24 24 24 25 25
35 35 35 34 33 32 30 29 30 31 32 34 35 34 32 30 29 29 28 28 28 29 30 29 28 28 29 30 32 35 37 38 39 42 43 40 38 36 35 34 37 43 48 51 52 49 47 47 44 41 42 42 41 39 38 37 37 36 34 33 32 31 31 30 30 30 31 30 29 29 30 30 30 29 29 28 26 26 26 25 25 25 25 25 26
35 34 34 34 33 31 30 29 29 31 32 33 33 33 32 31 30 30 29 29 29 29 29 30 29 28 28 29 30 33 35 37 39 41 42 41 39 37 35 33 35 40 44 48 51 51 48 47 45 43 43 44 42 41 41 40 39 37 36 34 33 32 31 30 30 31 31 31 31 30 31 30 30 31 31 28 27 27 26 26 26 26 26 26 26
35 34 34 33 32 31 30 29 29 30 32 33 33 32 32 31 31 30 29 29 29 29 29 30 30 29 28 28 29 31 34 36 38 39 40 41 40 37 34 32 33 37 42 45 49 51 50 47 45 45 45 45 44 43 43 42 41 39 37 36 35 33 32 32 32 32 33 32 32 32 31 31 31 32 31 29 28 27 27 27 28 27 27 27 27
35 34 34 33 32 32 31 30 30 30 31 32 32 32 31 31 30 29 29 29 29 30 30 30 30 30 29 29 29 31 32 34 37 38 39 40 41 38 35 32 30 33 40 44 46 49 50 47 46 46 46 45 45 45 44 44 42 40 39 38 36 35 33 34 34 34 35 34 33 33 32 32 32 31 30 30 29 28 28 28 29 28 28 27 27
34 34 34 33 33 32 31 31 31 31 31 32 32 31 31 31 30 29 28 28 29 29 30 30 30 30 30 29 29 31 32 33 36 37 37 38 41 42 39 35 31 30 34 42 46 48 48 48 48 48 46 46 47 45 44 45 44 42 41 40 37 35 35 37 37 36 36 36 35 34 33 33 33 32 30 30 29 29 30 30 30 29 29 29 28
34 34 34 34 33 32 31 31 31 31 32 32 31 31 31 31 30 30 29 28 29 29 29 29 29 30 30 29 29 30 32 33 34 36 36 36 38 42 42 38 34 30 30 36 44 48 49 49 49 48 47 47 48 47 46 46 45 44 43 40 37 37 39 40 39 38 38 37 36 35 34 34 33 32 31 30 30 32 33 32 32 31 30 30 30
35 35 35 34 34 32 32 31 31 31 32 32 31 30 31 31 31 30 29 29 28 28 28 29 29 29 30 30 29 29 31 33 33 34 35 35 35 39 41 39 36 33 30 30 36 43 47 48 47 47 47 48 48 48 47 46 46 45 43 40 39 40 41 42 41 39 38 38 36 36 35 34 34 33 32 32 32 33 34 34 34 33 32 32 32
35 35 35 35 34 33 32 32 32 32 31 31 31 30 30 30 30 30 29 29 28 28 28 28 28 29 30 31 30 29 30 32 33 33 34 35 34 35 37 38 37 36 33 30 30 36 42 45 45 46 47 48 47 47 47 47 46 45 43 41 41 41 41 43 42 40 38 38 37 36 35 35 35 34 34 34 34 35 36 36 36 35 35 35 34
35 35 35 35 34 33 33 32 32 32 32 31 30 30 29 30 30 29 29 28 28 28 28 27 28 28 29 30 31 30 29 30 33 33 33 34 34 34 34 36 37 37 35 32 30 30 35 41 43 44 45 45 45 46 47 47 46 45 44 43 43 42 42 43 43 41 40 40 38 37 36 36 36 35 36 36 37 37 38 37 37 37 37 37 36
36 36 36 35 35 35 34 33 33 33 32 30 30 29 29 30 30 29 28 27 27 28 28 28 28 28 29 30 31 31 30 29 31 33 33 33 33 33 33 34 36 36 36 35 32 29 30 35 40 42 43 44 45 45 45 46 46 45 45 45 45 44 44 43 43 43 42 41 39 38 38 38 38 38 38 39 40 40 39 38 38 38 39 39 39
37 37 36 36 36 35 35 34 33 33 32 31 29 29 29 30 30 29 27 26 27 27 27 27 27 28 28 29 30 31 31 30 30 31 32 32 33 33 33 34 35 36 36 36 34 31 29 29 33 38 41 42 43 43 43 44 45 46 46 46 46 46 45 45 44 44 43 42 41 41 41 40 40 41 41 40 40 40 39 38 39 40 40 40 39
37 37 37 37 36 36 35 34 33 32 32 32 30 29 30 30 30 29 27 26 26 26 26 27 27 27 28 29 30 31 31 31 30 30 31 31 32 32 33 33 35 36 36 35 34 32 30 28 29 32 36 39 40 41 41 42 43 44 45 46 46 46 46 47 46 45 44 44 44 43 43 43 43 42 42 41 41 41 40 40 41 41 41 39 39
37 37 37 37 37 37 36 35 34 32 32 32 31 30 29 30 29 28 27 26 25 24 25 26 26 27 27 28 29 30 31 32 31 31 30 31 31 32 32 33 35 36 35 35 34 32 31 29 27 28 31 35 37 38 39 40 41 41 42 43 43 44 46 47 47 46 45 44 44 44 44 45 45 43 43 42 42 42 42 42 42 42 41 41 40
38 38 37 37 37 37 36 36 35 33 32 32 31 30 29 29 29 28 27 26 25 24 24 25 26 26 27 27 29 30 30 31 32 32 31 29 30 31 32 33 35 36 36 35 35 33 32 30 28 27 28 30 32 34 36 38 39 39 40 40 41 42 43 45 45 45 44 44 44 44 45 45 45 44 44 44 43 43 43 43 43 42 41 41 41
38 38 38 38 37 37 36 36 36 34 33 32 31 30 29 29 29 28 26 26 25 24 24 24 25 26 26 27 28 29 30 31 32 32 30 28 29 30 32 33 35 36 36 36 35 34 33 31 28 27 27 27 28 30 32 34 35 37 37 38 39 39 40 41 41 42 43 43 43 44 45 45 45 44 45 45 45 44 43 44 44 43 42 41 41
39 38 38 38 37 36 36 36 36 35 33 32 30 29 29 29 29 27 26 25 25 24 23 24 25 25 26 27 28 29 29 30 31 31 30 28 28 30 31 32 34 36 37 36 35 35 33 31 28 27 27 27 26 27 29 30 32 34 35 36 36 36 36 37 37 38 40 41 41 42 43 44 44 44 44 44 44 44 44 44 44 43 42 41 40
39 39 38 38 37 37 36 36 35 35 33 32 30 28 28 29 29 27 25 24 24 24 23 23 24 25 25 26 27 28 28 29 30 30 30 28 28 29 31 32 33 36 37 37 35 34 33 31 29 27 27 27 26 27 27 28 30 32 33 33 33 33 33 34 35 35 36 37 38 39 40 41 42 42 42 42 43 43 43 43 42 41 40 40 40
39 39 39 38 38 37 36 35 34 33 32 31 29 28 27 28 28 27 25 23 23 23 23 22 23 23 24 25 26 26 26 27 28 29 30 29 28 29 30 31 33 35 37 37 35 34 32 30 29 28 27 27 27 27 27 27 28 30 31 32 32 32 32 33 34 35 35 36 36 37 37 37 38 37 37 38 40 40 39 39 38 38 39 40 42
39 39 39 38 37 36 35 33 31 30 30 29 29 28 27 27 27 26 24 22 21 22 22 21 21 23 23 24 24 24 25 26 27 28 29 29 28 29 30 31 32 34 36 36 35 33 31 29 29 28 28 28 28 27 27 26 27 28 30 31 32 31 31 32 33 34 34 35 35 35 35 35 34 33 32 34 35 35 36 37 38 38 39 39 41
39 38 38 37 35 34 32 30 28 28 28 28 28 27 27 26 26 25 24 22 20 20 21 21 21 22 23 23 23 23 24 25 27 28 28 29 29 29 29 30 32 33 35 36 35 33 31 29 29 28 28 28 27 27 26 26 26 27 29 30 31 31 31 31 32 32 32 33 34 35 35 36 33 29 28 32 35 36 37 39 40 39 40 41 42
37 36 35 35 34 32 30 28 26 26 27 27 27 27 26 26 25 24 22 21 20 19 20 20 20 20 21 22 22 23 24 25 26 27 27 28 29 29 29 30 31 33 34 35 35 34 32 30 29 28 28 27 26 26 25 25 25 26 28 29 29 29 30 30 29 29 29 31 33 34 35 36 35 29 28 35 43 43 38 35 34 34 36 38 40
34 34 34 33 31 30 28 27 26 26 26 27 26 26 25 25 25 23 21 20 19 19 19 19 19 19 20 21 21 22 23 25 26 27 27 28 28 29 29 30 31 33 33 32 33 34 33 30 29 28 26 25 25 25 25 25 25 25 26 26 27 28 28 29 28 27 24 25 27 30 34 36 35 31 33 40 43 35 28 28 30 31 32 34 36
33 33 33 31 29 27 26 26 26 26 26 26 25 25 25 24 23 21 19 19 18 18 17 18 18 18 19 20 21 22 23 24 26 27 27 27 27 28 28 28 29 31 31 31 32 34 33 31 29 27 25 24 24 25 24 23 23 23 23 24 24 25 26 27 28 28 25 22 21 25 32 33 30 28 32 36 35 30 31 32 32 30 28 28 28
32 33 32 30 28 26 26 26 26 26 26 25 24 23 23 22 21 19 18 17 16 16 16 17 17 17 18 20 21 21 23 24 25 26 26 26 27 27 28 28 30 32 33 32 32 32 31 29 28 26 25 24 24 23 23 22 22 22 22 22 22 23 24 24 25 25 24 22 20 20 23 25 23 22 25 29 31 33 35 33 29 25 22 20 19
31 31 30 28 27 26 25 25 25 25 25 24 23 22 21 20 19 17 15 15 15 15 15 15 16 16 18 20 21 21 22 24 25 26 26 25 26 27 29 31 32 32 33 32 31 29 29 28 27 25 25 24 23 22 22 21 21 20 20 20 21 21 22 22 23 22 22 22 22 21 21 22 22 22 24 26 28 30 29 26 22 19 16 14 13
30 29 27 26 25 25 25 25 25 24 23 22 21 21 20 18 17 16 14 13 13 13 13 14 15 16 17 19 20 21 22 23 24 25 25 24 25 27 29 31 32 31 31 31 30 29 28 28 27 26 25 24 23 22 21 19 17 17 17 17 17 18 18 19 20 20 20 21 21 22 22 21 21 21 21 22 22 21 19 16 14 12 10 9 8
28 26 25 24 24 24 24 24 24 23 22 20 19 19 18 16 15 15 14 13 12 12 12 14 15 16 17 18 19 20 21 22 23 24 24 24 25 27 29 30 31 31 31 32 33 32 30 28 28 27 25 24 23 23 21 18 16 15 15 14 14 13 14 14 14 15 16 17 17 17 17 16 15 14 13 13 13 12 11 10 9 8 7 6 7
25 24 23 23 23 23 23 23 23 22 20 18 17 16 15 14 13 12 12 12 11 11 12 14 15 16 16 16 17 18 19 21 23 23 23 25 26 27 28 31 32 32 32 33 34 33 31 28 27 25 24 23 24 23 21 19 17 16 15 13 11 10 10 10 10 10 11 11 11 11 12 12 11 10 10 9 9 8 7 6 6 6 6 7 8
23 22 22 22 22 22 22 22 21 20 18 16 15 14 13 12 11 11 11 11 11 11 12 12 13 14 14 14 14 16 18 20 21 21 22 25 26 26 26 29 32 32 31 32 33 33 31 27 24 23 22 22 22 20 19 18 17 17 15 13 11 10 9 8 7 7 7 7 7 7 7 7 7 7 6 6 5 5 6 6 7 8 8 9 10
21 22 21 21 20 20 20 20 19 17 15 13 12 11 11 11 10 10 10 10 11 11 11 11 11 11 11 11 13 15 17 18 19 20 21 24 25 23 22 25 30 31 30 30 31 31 29 26 23 21 20 20 18 16 15 15 15 15 15 14 13 12 10 9 7 7 6 6 5 5 5 5 5 5 5 6 6 7 8 9 9 10 11 12 13
21 21 20 20 19 19 19 18 16 14 12 11 10 10 10 10 10 10 9 9 10 10 9 9 8 9 10 11 12 13 14 15 17 19 19 21 23 22 20 23 27 29 29 29 30 29 28 25 22 20 18 17 16 15 15 15 15 15 14 14 12 11 10 9 9 8 8 7 7 7 7 7 7 7 8 8 9 9 10 10 11 13 14 15 16
21 20 20 20 19 18 17 15 14 12 10 10 10 10 9 9 10 9 9 9 9 8 7 6 7 9 9 9 10 10 10 12 15 18 18 18 20 20 20 22 25 27 27 28 28 28 27 24 21 19 18 17 17 17 17 16 16 16 15 13 11 10 9 10 10 9 9 10 9 9 9 9 9 9 9 10 10 11 12 13 15 16 17 17 18
20 20 21 21 19 16 14 13 11 10 9 10 10 10 10 9 9 9 8 8 8 7 5 5 7 8 9 9 9 8 8 10 13 16 17 18 19 19 20 22 25 26 26 26 26 26 26 24 22 20 20 19 18 18 18 17 17 17 16 14 13 12 12 12 12 12 11 11 11 11 11 11 11 11 10 11 12 14 15 16 17 18 19 19 21
20 21 22 20 16 12 11 11 10 9 9 10 10 10 10 10 9 8 7 6 6 5 4 6 7 8 8 10 9 7 7 9 12 15 18 21 22 21 21 22 23 24 25 25 25 26 26 26 25 24 23 21 19 19 19 19 19 19 18 17 16 16 15 14 13 13 13 12 12 12 12 12 13 13 13 14 16 17 18 19 20 21 22 22 22
20 21 22 18 13 10 10 10 9 8 9 9 10 10 10 9 8 7 5 4 4 4 4 5 6 6 8 9 8 6 6 8 10 14 18 22 23 24 23 22 22 22 23 24 25 26 27 28 27 27 25 23 22 23 24 24 23 23 22 21 19 18 17 16 16 15 15 15 14 14 14 15 16 16 17 18 19 20 21 22 23 24 25 24 23
20 21 20 16 12 10 10 9 9 9 9 9 10 10 9 8 7 5 4 3 3 3 3 4 4 5 7 6 5 5 7 9 10 13 18 22 23 24 23 22 22 22 22 23 25 27 28 28 28 28 27 27 27 27 27 26 25 24 23 21 21 20 19 19 19 19 18 17 17 17 17 18 19 20 21 22 23 23 23 23 23 23 23 22 22
20 21 18 14 11 10 9 8 9 9 9 10 10 10 9 7 6 4 3 2 1 2 4 4 4 5 5 4 3 4 7 9 11 15 20 23 23 23 24 24 24 24 24 25 26 27 28 29 30 30 29 28 27 26 25 23 23 22 22 21 20 20 20 20 20 19 19 19 19 19 19 20 21 22 23 24 24 23 22 21 20 20 20 21 21
Wind_Direction
311 311 310 308 306 304 302 299 296 292 287 281 276 271 268 267 266 266 265 264 263 263 263 263 262 262 261 259 257 253 252 250 244 239 239 239 236 233 233 235 237 237 238 240 243 243 239 236 235 233 234 236 236 237 239 241 242 243 242 240 239 238 237 238 242 245 245 246 250 254 255 254 253 252 252 252 252 253 254 256 258 259 260 262 266
311 311 311 310 309 307 305 302 299 296 292 287 281 275 269 265 263 262 262 262 261 261 260 260 260 260 259 258 257 253 252 252 247 241 239 238 237 235 231 232 235 237 236 237 239 241 241 237 235 233 232 234 236 236 237 239 241 243 243 243 242 241 239 239 242 244 245 244 246 251 254 256 255 255 254 255 255 255 255 256 258 260 261 262 264
310 310 310 309 309 308 307 305 302 298 295 291 287 282 276 270 264 260 259 260 260 260 259 258 258 257 257 256 255 253 250 250 249 247 243 239 237 236 233 231 233 235 235 236 236 237 239 239 238 236 233 234 237 238 238 238 238 241 243 244 244 243 242 242 243 245 245 244 244 247 251 255 256 256 256 256 257 257 258 259 260 261 263 265 266
312 311 310 309 309 308 306 304 302 300 297 295 292 289 284 278 272 264 259 257 258 258 258 258 256 256 256 255 254 253 250 249 248 249 247 241 236 235 234 231 231 232 233 235 237 236 236 237 239 239 236 235 238 241 242 241 240 240 242 244 245 245 244 244 245 247 247 246 245 246 249 253 255 257 257 257 257 258 259 261 263 264 266 267 268
313 312 311 310 309 307 304 301 299 298 297 296 295 294 292 288 283 275 266 258 256 256 257 257 256 254 255 254 253 252 251 249 248 249 249 243 237 235 234 231 229 229 231 233 236 237 235 235 237 238 236 234 237 241 244 245 244 243 243 244 245 246 245 244 245 247 249 249 248 247 248 251 255 257 258 258 258 259 261 264 267 269 270 271 271
314 313 311 310 309 307 304 300 298 297 296 296 296 297 297 296 293 287 278 266 259 255 255 255 255 253 252 253 253 252 250 249 248 248 249 245 238 235 233 232 230 230 230 231 234 236 236 235 235 235 233 231 232 236 240 244 246 246 247 247 246 247 247 246 246 246 248 251 251 249 248 250 253 256 258 260 260 261 263 265 268 270 271 272 273
314 313 311 309 308 306 302 297 296 295 294 295 296 297 299 300 299 297 290 278 267 259 255 254 254 253 251 250 251 250 249 248 246 247 248 246 240 235 233 233 231 230 231 231 232 234 236 235 234 233 232 229 229 231 233 238 243 245 247 249 249 248 248 248 248 247 248 250 252 252 251 250 251 254 257 260 261 263 265 266 267 267 268 270 272
315 313 311 310 308 306 300 294 292 292 292 293 295 296 298 299 300 301 298 290 278 266 260 256 254 253 251 248 249 249 248 247 246 245 246 246 243 237 234 234 232 231 231 232 231 232 234 235 234 232 231 230 230 230 230 233 238 241 244 247 249 249 249 249 249 248 248 250 252 254 254 253 252 253 255 257 260 263 266 268 268 268 268 270 271
315 314 312 311 309 307 300 291 288 289 289 291 293 295 297 298 299 300 299 296 288 275 266 260 256 254 252 249 247 247 247 246 246 244 244 245 245 239 235 234 233 232 231 232 232 231 232 233 233 231 230 230 230 230 229 230 233 237 240 244 247 248 248 249 249 249 249 249 251 253 255 256 256 256 256 257 260 263 264 266 267 268 269 270 272
316 314 313 311 311 308 301 292 287 287 288 290 292 294 296 296 296 296 296 296 293 284 273 265 259 255 253 250 247 246 246 245 244 243 242 242 244 240 235 234 233 232 232 231 231 232 233 233 232 231 230 230 229 228 229 231 231 233 236 240 243 246 248 249 249 249 249 250 250 252 253 256 258 258 258 259 261 262 263 264 266 267 269 270 272
316 314 313 313 312 309 303 294 289 289 290 291 291 293 294 295 294 292 291 291 291 288 280 270 263 257 253 251 248 246 245 244 242 242 243 243 244 243 238 235 233 231 231 230 230 232 234 233 231 231 231 230 229 229 230 231 230 230 232 235 239 243 246 248 248 248 249 250 251 251 253 255 257 258 259 260 261 261 263 264 266 268 269 271 272
317 315 315 314 313 310 305 298 293 291 292 293 294 295 296 295 292 290 287 285 285 286 283 276 268 260 254 251 248 246 244 242 240 240 243 244 243 243 242 237 232 230 229 229 229 230 232 233 232 231 231 231 231 230 232 233 232 231 231 232 235 238 242 245 247 247 248 249 250 252 254 256 257 258 258 259 260 261 263 266 267 268 270 271 273
317 316 316 316 314 311 306 302 298 296 296 297 298 299 298 296 293 290 286 282 280 280 280 278 272 265 257 251 249 246 244 241 238 237 241 244 241 242 244 239 232 230 228 227 228 229 230 231 232 231 231 232 232 232 233 235 235 234 233 233 233 236 239 242 245 246 247 248 250 251 253 255 258 259 259 258 259 261 263 265 267 268 270 271 273
318 317 316 316 314 310 305 302 300 299 299 299 300 300 299 297 294 291 288 284 279 275 275 275 273 268 261 254 249 247 244 241 238 237 239 243 241 241 244 241 233 229 227 226 227 229 229 230 231 232 232 232 233 233 234 235 237 236 236 236 235 235 238 240 243 246 247 247 247 249 251 253 256 259 258 257 257 259 261 263 265 267 269 271 273
318 316 316 315 313 308 303 301 299 298 299 300 300 300 299 297 295 292 288 285 281 276 272 271 271 268 264 257 251 248 245 242 240 239 239 240 241 240 242 243 236 229 228 228 227 228 230 230 230 233 234 233 233 234 235 235 237 237 237 238 238 237 238 240 243 245 246 247 247 248 250 252 255 257 257 256 256 259 261 263 265 266 268 270 273
317 316 315 315 313 309 303 299 297 297 299 301 302 301 299 297 296 293 288 284 281 277 272 268 268 267 265 259 253 249 246 243 242 242 240 239 240 240 242 244 239 232 230 230 228 229 230 230 231 234 235 233 233 234 235 235 235 236 237 239 239 238 238 240 243 245 247 247 247 248 249 251 252 255 256 256 256 259 262 264 266 267 269 272 274
317 316 315 315 314 310 304 300 297 297 299 301 302 301 299 297 296 294 290 285 279 276 273 267 265 264 264 261 254 249 246 243 242 244 242 239 239 241 242 243 240 234 231 230 230 230 229 230 233 235 235 233 233 234 235 235 235 235 236 237 238 239 239 240 242 245 247 248 247 248 249 249 250 253 256 257 257 259 262 264 266 267 270 272 274
317 317 316 315 314 312 307 302 299 297 298 300 301 301 299 298 297 296 292 287 281 276 273 268 263 261 261 261 256 250 246 244 242 244 244 241 239 241 242 242 242 238 232 230 230 229 229 231 234 234 234 234 234 234 236 237 237 237 237 237 237 238 239 240 241 244 246 247 247 248 249 250 251 253 255 257 258 260 262 264 266 268 269 271 274
316 316 316 316 315 312 309 305 302 299 298 298 299 300 299 298 298 297 293 288 283 278 273 268 263 259 258 258 257 253 248 244 242 244 245 243 240 241 242 242 244 244 237 232 230 230 231 233 234 234 235 236 236 235 237 238 239 240 240 239 239 239 240 240 241 242 245 246 247 248 248 249 250 251 254 256 259 262 263 265 267 268 270 272 275
315 316 316 316 315 313 310 307 305 302 299 297 297 298 298 297 297 297 294 289 285 280 274 269 263 258 256 255 255 254 251 247 243 243 245 244 241 241 242 241 243 247 245 238 233 232 232 233 234 235 237 238 238 237 237 239 241 242 241 241 242 243 241 240 240 242 244 245 247 248 249 250 250 251 253 255 257 260 263 265 267 268 270 272 274
315 315 315 316 315 313 311 309 307 304 301 298 297 296 296 296 296 295 293 289 284 280 275 269 264 258 254 253 253 253 252 249 245 242 243 245 243 242 243 241 241 245 247 244 238 235 234 235 236 237 239 239 239 239 239 240 242 243 242 242 244 244 242 241 242 243 244 245 247 249 250 251 251 251 252 254 255 258 261 264 266 267 269 271 273
314 314 315 315 315 314 312 310 308 306 303 300 298 296 296 296 296 295 292 288 283 279 274 269 264 258 253 251 251 251 251 250 248 244 242 244 244 243 243 241 239 241 245 246 243 238 235 235 237 238 238 239 239 238 238 239 242 244 243 242 243 244 244 244 245 245 245 248 250 250 250 251 252 252 253 253 255 257 260 262 265 267 269 271 273
313 313 314 314 315 315 314 311 308 307 304 301 298 297 297 297 296 295 291 287 282 277 273 268 262 258 253 250 249 249 250 250 249 247 243 242 243 243 243 241 239 239 242 245 246 242 236 235 236 237 237 238 239 239 239 239 241 243 244 244 244 245 244 245 246 246 247 250 252 251 251 252 252 251 252 253 254 256 259 261 264 268 270 271 272
312 312 312 313 314 315 314 312 309 307 305 302 300 299 299 299 298 295 291 286 281 275 271 267 261 256 252 250 248 247 247 248 249 248 245 242 242 242 241 239 237 238 241 245 247 246 239 236 236 237 237 239 241 241 240 240 241 243 245 245 246 246 246 247 247 247 248 250 251 251 252 252 252 250 250 252 253 255 257 261 264 267 269 270 272
311 311 312 312 312 313 313 312 310 308 306 304 302 300 300 301 299 295 290 285 280 274 270 266 261 256 251 249 247 246 245 246 247 248 246 243 240 240 240 237 235 235 238 242 246 249 247 241 238 237 238 240 241 242 242 242 243 244 245 247 247 248 248 249 249 249 249 249 250 250 251 253 253 252 250 251 253 255 258 261 263 265 267 268 270
311 311 311 310 311 311 311 311 310 309 308 306 303 301 301 301 300 296 290 285 279 274 269 265 261 257 252 248 246 245 244 243 244 247 247 244 240 239 238 236 234 233 234 238 243 248 250 247 241 236 237 239 241 242 242 243 243 244 246 247 249 249 250 250 249 249 249 248 249 250 251 253 253 253 251 252 254 257 259 260 262 264 265 266 267
310 309 309 309 309 310 310 310 310 310 308 306 303 301 300 301 300 296 291 285 279 274 270 264 260 258 254 249 245 243 243 241 241 243 245 242 239 238 237 236 234 232 232 235 239 243 247 248 245 240 237 238 240 242 242 243 243 244 245 247 249 250 250 250 250 249 248 248 248 250 252 253 254 253 253 253 255 257 258 260 261 262 263 264 265
309 308 308 309 309 309 309 309 310 309 308 306 303 300 299 301 301 297 292 286 280 274 269 265 260 257 254 250 245 243 242 240 239 240 241 240 238 236 236 235 234 232 232 232 235 238 242 245 246 244 241 238 238 240 241 242 243 244 245 247 249 249 250 251 251 251 249 249 249 251 253 254 254 254 253 254 255 256 256 258 260 261 262 263 265
308 308 308 308 308 308 308 308 308 308 307 305 303 301 300 300 300 298 293 287 280 274 269 265 261 257 253 250 246 244 242 239 237 238 240 240 238 237 236 235 234 232 231 231 233 235 239 242 244 243 242 240 239 240 241 242 243 244 246 248 249 249 250 251 252 252 252 251 251 252 253 254 253 253 253 254 255 256 256 257 259 261 262 263 264
307 307 308 308 308 308 307 306 306 305 305 304 302 301 300 299 300 298 294 287 281 275 270 266 262 258 254 251 247 244 242 238 236 236 238 239 238 237 236 235 234 232 231 231 232 234 237 241 243 242 242 241 241 242 243 244 244 244 246 247 249 249 249 250 251 252 252 253 252 253 253 254 253 253 253 254 256 257 258 258 259 261 262 263 262
307 307 308 308 308 307 305 304 303 302 302 302 301 300 300 300 299 298 295 289 281 275 270 267 264 259 255 251 247 244 240 237 234 234 235 236 236 236 236 236 234 232 230 230 231 232 235 239 242 242 242 242 242 244 246 246 246 246 245 246 248 249 249 251 251 251 251 252 252 253 254 254 254 253 253 254 255 256 257 259 261 261 259 257 255
308 308 308 308 307 306 304 302 301 300 300 301 301 300 299 300 299 298 295 289 280 274 271 268 264 260 255 251 247 243 238 235 232 232 233 235 235 234 235 235 234 231 230 230 230 231 233 236 239 241 242 242 243 244 246 248 249 248 247 247 248 248 250 252 253 252 252 251 251 253 253 253 253 253 253 254 256 256 258 259 257 253 250 248 248
308 308 308 307 306 305 304 302 301 299 300 301 300 300 300 300 299 297 294 288 278 271 268 265 261 258 254 249 245 240 235 232 231 231 232 234 234 233 233 235 234 231 229 228 229 230 231 233 236 239 241 242 243 244 245 248 250 250 249 249 248 248 249 251 253 254 254 252 251 251 251 252 251 251 251 254 256 257 256 253 248 244 244 246 246
309 309 308 308 307 307 306 305 302 301 301 300 299 299 299 299 297 295 291 286 277 268 265 262 256 252 249 246 242 238 233 229 229 230 232 233 233 231 231 232 233 231 229 227 227 228 230 231 233 237 240 241 243 245 247 250 251 251 251 250 249 249 249 251 254 255 254 254 253 251 250 249 247 246 251 256 256 251 245 243 243 244 245 247 248
310 310 309 309 310 310 310 308 305 303 302 300 298 299 300 300 298 295 290 285 278 270 265 262 256 251 248 245 242 238 234 231 230 231 232 232 232 231 229 229 230 228 226 225 225 226 228 230 232 235 238 241 243 246 249 252 253 253 252 250 249 248 247 250 254 255 255 256 254 249 246 243 239 236 236 236 236 235 233 235 243 250 251 251 251
312 311 311 311 312 312 310 308 306 304 302 299 299 301 302 301 300 296 291 287 282 275 268 264 260 254 249 245 241 239 237 235 233 233 233 232 231 230 228 228 228 225 222 222 225 226 226 227 230 233 235 239 243 247 251 254 254 253 251 249 247 246 245 246 249 250 254 258 252 239 231 230 230 229 223 215 213 221 236 248 255 258 256 253 251
312 311 311 311 312 311 309 307 306 305 302 301 301 302 303 302 301 296 291 287 282 276 270 264 259 255 251 246 242 239 239 238 238 237 235 233 231 230 228 227 227 224 220 220 225 226 225 225 227 229 232 236 242 246 249 249 248 248 248 247 246 245 244 245 247 251 256 261 250 229 220 220 226 234 233 224 224 240 258 263 262 260 257 255 253
311 310 310 311 311 309 307 306 306 304 303 302 301 302 303 302 299 294 289 285 280 274 268 262 258 254 251 247 243 241 242 241 240 238 236 233 231 229 226 223 222 220 217 218 222 224 223 223 224 225 227 233 238 241 240 240 241 244 248 248 246 245 245 244 246 250 252 252 246 233 226 228 236 242 242 241 244 253 260 262 261 260 257 253 247
309 310 310 310 309 308 307 306 305 304 303 302 301 302 302 301 297 293 288 283 279 275 270 265 261 257 253 248 245 243 243 243 241 238 235 232 230 227 223 220 220 219 217 217 219 220 221 222 222 221 223 228 233 234 233 236 240 244 248 249 247 247 246 244 244 245 245 243 243 242 239 238 239 240 241 243 247 250 253 255 255 251 245 237 230
309 309 309 308 307 307 307 307 306 305 304 302 302 303 303 302 300 297 291 284 280 278 275 271 266 262 257 252 248 245 243 241 239 237 234 230 227 224 220 218 218 219 218 216 216 217 219 220 220 219 220 223 227 228 229 232 236 239 240 241 241 241 242 242 242 241 239 238 239 241 241 239 237 236 236 237 237 237 237 236 231 226 221 218 217
310 310 308 307 307 308 308 308 307 307 306 304 303 304 304 303 301 297 291 286 283 279 275 271 267 263 259 254 250 247 242 238 236 234 230 225 222 220 217 215 215 217 217 216 217 217 217 217 218 218 217 218 220 220 221 223 226 228 228 229 229 229 230 231 230 228 227 225 224 226 229 229 228 225 220 217 215 214 212 211 210 211 213 219 226
312 311 309 309 309 310 310 310 309 309 308 306 305 303 301 299 297 293 289 286 282 276 272 269 266 262 257 251 247 244 241 237 234 231 226 221 216 215 214 213 214 216 217 216 216 214 212 212 214 214 214 214 214 215 216 218 219 218 215 212 212 214 214 214 212 209 206 204 202 201 201 201 200 198 196 196 199 202 205 211 219 227 235 244 252
314 312 311 311 311 311 311 312 312 312 311 308 304 301 300 299 298 298 297 294 289 283 277 271 266 260 254 247 241 237 236 235 232 229 225 218 214 215 218 217 216 218 217 214 211 209 207 205 206 207 208 210 210 210 213 215 214 211 205 198 195 195 195 194 193 189 181 176 175 175 177 180 182 184 189 199 211 223 233 242 249 255 260 264 266
316 314 314 314 314 315 316 316 316 315 313 310 307 307 307 307 306 305 302 297 291 286 280 275 268 260 253 247 237 230 231 233 230 225 219 213 211 219 227 224 218 217 215 210 207 206 204 199 194 196 201 203 201 201 202 204 204 203 201 195 189 186 183 179 174 172 169 170 177 182 183 189 199 209 220 231 240 248 254 260 265 269 271 272 272
320 319 319 319 319 319 320 320 319 318 317 317 317 316 315 314 312 308 301 294 287 282 279 274 263 252 247 244 235 229 231 230 220 211 207 209 215 226 232 223 214 211 209 205 204 205 202 194 187 186 190 192 191 189 189 192 194 195 194 191 186 182 181 180 180 182 187 193 202 207 211 216 223 230 236 244 253 259 264 269 272 272 272 272 272
327 326 326 325 323 321 321 322 323 323 323 323 323 322 321 317 311 307 303 296 291 287 279 265 250 242 238 231 226 228 232 223 209 201 201 209 221 226 220 209 204 203 201 201 204 206 201 191 183 182 185 185 185 186 187 190 192 191 188 187 188 190 195 199 201 204 209 212 217 222 226 230 236 242 249 257 263 264 265 267 268 268 269 270 271
332 332 331 328 323 321 323 326 329 329 327 326 325 325 323 318 311 308 305 297 293 291 279 252 241 238 229 217 215 221 222 215 210 205 201 203 211 214 210 206 204 202 201 203 206 205 196 186 184 189 191 187 186 188 190 191 194 194 194 196 203 209 216 219 220 220 221 224 227 233 238 243 248 254 260 265 264 262 263 265 266 267 268 270 272
336 335 334 330 327 326 330 333 335 334 332 331 330 328 324 319 314 312 310 302 294 286 262 237 232 228 217 212 216 222 216 209 208 205 200 198 200 203 206 208 208 205 204 205 205 200 192 186 187 193 194 191 193 198 200 199 201 204 206 210 216 221 225 229 232 232 233 234 237 241 246 251 253 256 257 257 257 259 262 265 267 269 271 274 278
339 338 338 337 336 337 340 342 342 340 338 337 334 329 326 323 319 317 316 306 288 268 240 228 224 212 200 205 219 229 217 201 197 198 198 198 199 202 205 208 208 207 207 205 202 198 192 189 190 194 194 194 198 204 207 206 207 210 212 215 219 224 228 232 234 235 236 239 242 246 249 251 254 256 258 258 259 261 265 268 270 271 273 276 278
341 341 343 342 341 343 348 351 351 346 343 342 340 335 331 330 328 326 324 310 284 252 215 201 195 188 190 203 221 223 207 195 187 189 194 198 202 207 209 209 209 209 209 207 205 201 197 195 196 199 200 200 202 206 208 209 212 216 220 223 226 230 232 233 234 236 237 239 243 248 251 253 257 260 263 264 265 266 267 269 269 269 270 271 272
343 343 344 343 343 347 354 356 354 350 348 346 345 343 343 344 345 347 351 341 281 190 181 178 168 167 187 214 229 223 215 203 187 183 190 196 203 210 214 215 215 216 215 214 212 210 206 205 206 206 206 207 209 211 213 216 219 222 225 228 230 232 233 234 236 238 239 241 247 253 257 259 261 263 264 266 267 267 268 269 268 268 269 271 274